Weather History for Laramie, WY

Change the Weather History Date:

Saturday, August 30, 2014

  Actual Average Record
Temperature  
Mean Temperature 61 °F 59 °F  
Max Temperature 78 °F 75 °F 89 °F (1948)
Min Temperature 44 °F 44 °F 32 °F (1964)
Degree Days  
Heating Degree Days 4 6  
Month to date heating degree days 114 96  
Since 1 June heating degree days 411 406  
Since 1 July heating degree days 169 165  
Cooling Degree Days 0 0  
Month to date cooling degree days 2 17  
Year to date cooling degree days 67 64  
Since 1 June cooling degree days 67 64  
Growing Degree Days 10 (Base 50)    
Moisture  
Dew Point 43 °F    
Average Humidity 58    
Maximum Humidity 89    
Minimum Humidity 27    
Precipitation  
Precipitation 0.09 in 0.03 in 0.39 in (2003)
Month to date precipitation 1.52 1.19  
Year to date precipitation 10.68 8.11  
Sea Level Pressure  
Sea Level Pressure 29.91 in    
Wind  
Wind Speed 12 mph (SW)    
Max Wind Speed 39 mph    
Max Gust Speed 52 mph    
Visibility 10 miles    
Events Rain , Thunderstorm    
T = Trace of Precipitation, MM = Missing Value Source: NWS Daily Summary

Daily Weather History Graph

Daily Weather History Graph

Search for Another Location

Airport:

Trip Planner

Search our weather history database for the weather conditions in past years. The results will help you decide how hot, cold, wet, or windy it might be!

Date:

Astronomy

Aug. 30, 2014 Rise Set
Actual Time 6:27 AM MDT 7:38 PM MDT
Civil Twilight 5:58 AM MDT 8:07 PM MDT
Nautical Twilight 5:24 AM MDT 8:41 PM MDT
Astronomical Twilight 4:48 AM MDT 9:16 PM MDT
Moon 11:20 AM MDT (8/30) 10:10 PM MDT (8/30)
Length of Visible Light 14h 08m
Length of Day
13h 11m
Waxing Crescent, 23% of the Moon is Illuminated
Aug 30
Waxing Crescent
Sep 2
First Quarter
Sep 8
Full
Sep 15
Last Quarter
Sep 24
New

Hourly Weather History & Observations

Time (MDT) Temp. Windchill Dew Point Humidity Pressure Visibility Wind Dir Wind Speed Gust Speed Precip Events Conditions
12:53 AM 48.9 °F - 44.1 °F 83% 29.94 in 10.0 mi South 3.5 mph - N/A   Clear
1:53 AM 48.9 °F - 44.1 °F 83% 29.94 in 10.0 mi SE 11.5 mph - N/A   Scattered Clouds
2:53 AM 48.0 °F - 43.0 °F 83% 29.95 in 10.0 mi SSE 11.5 mph - N/A   Scattered Clouds
3:53 AM 46.9 °F - 41.0 °F 80% 29.94 in 10.0 mi South 5.8 mph - N/A   Clear
4:53 AM 45.0 °F 41.8 °F 41.0 °F 86% 29.93 in 10.0 mi SSE 5.8 mph - N/A   Clear
5:53 AM 45.0 °F 39.3 °F 41.0 °F 86% 29.92 in 10.0 mi South 11.5 mph - N/A   Clear
6:53 AM 46.0 °F 41.0 °F 41.0 °F 83% 29.94 in 10.0 mi SSE 10.4 mph - N/A   Clear
7:53 AM 54.0 °F - 43.0 °F 66% 29.93 in 10.0 mi South 6.9 mph - N/A   Clear
8:53 AM 61.0 °F - 43.0 °F 52% 29.90 in 10.0 mi SSW 13.8 mph - N/A   Clear
9:53 AM 66.9 °F - 43.0 °F 42% 29.87 in 10.0 mi SSW 12.7 mph 18.4 mph N/A   Clear
10:53 AM 71.1 °F - 41.0 °F 34% 29.83 in 10.0 mi SW 19.6 mph 26.5 mph N/A   Clear
11:53 AM 73.9 °F - 39.9 °F 29% 29.80 in 10.0 mi WSW 18.4 mph 26.5 mph N/A   Clear
12:53 PM 75.9 °F - 39.9 °F 27% 29.78 in 10.0 mi SW 18.4 mph 27.6 mph N/A   Clear
1:53 PM 75.9 °F - 39.0 °F 26% 29.76 in 10.0 mi WSW 19.6 mph 28.8 mph N/A   Mostly Cloudy
2:53 PM 73.9 °F - 37.0 °F 26% 29.75 in 10.0 mi SW 18.4 mph - N/A   Clear
3:09 PM 72.0 °F - 39.0 °F 30% 30.05 in 10.0 mi WSW 15.0 mph - N/A Thunderstorm Clear
3:16 PM 72.0 °F - 35.1 °F 26% 30.05 in 10.0 mi WSW 23.0 mph 31.1 mph N/A Thunderstorm Thunderstorm
3:53 PM 62.1 °F - 46.0 °F 56% 29.82 in 10.0 mi South 11.5 mph 40.3 mph 0.04 in Rain Light Rain
4:53 PM 64.0 °F - 43.0 °F 46% 29.81 in 10.0 mi WSW 32.2 mph 43.7 mph 0.00 in   Scattered Clouds
5:53 PM 59.0 °F - 45.0 °F 60% 29.87 in 10.0 mi West 6.9 mph - 0.00 in   Overcast
6:50 PM 53.6 °F - 48.2 °F 82% 30.09 in 2.5 mi WNW 19.6 mph 36.8 mph 0.04 in Rain Heavy Rain
6:53 PM 53.1 °F - 46.9 °F 80% 29.88 in 2.5 mi WNW 12.7 mph 36.8 mph 0.04 in Rain Light Rain
7:00 PM 54.0 °F - 46.9 °F 77% 30.09 in 10.0 mi WSW 10.4 mph - 0.01 in Rain Light Rain
7:53 PM 52.0 °F - 48.0 °F 86% 29.83 in 10.0 mi SW 8.1 mph - 0.01 in   Partly Cloudy
9:53 PM 48.9 °F - 45.0 °F 86% 29.78 in 10.0 mi South 9.2 mph - N/A   Clear
10:53 PM 50.0 °F - 45.0 °F 83% 29.78 in 10.0 mi SW 12.7 mph - N/A   Scattered Clouds
11:00 PM 52.0 °F - 45.0 °F 77% 30.12 in 10.0 mi West 23.0 mph 28.8 mph N/A Thunderstorm Mostly Cloudy
11:08 PM 52.0 °F - 46.0 °F 80% 30.10 in 10.0 mi WSW 11.5 mph 32.2 mph 0.00 in Rain , Thunderstorm Light Rain
11:15 PM 52.0 °F - 45.0 °F 77% 30.09 in 10.0 mi WSW 8.1 mph - 0.00 in   Mostly Cloudy
11:53 PM 51.1 °F - 44.1 °F 77% 29.73 in 10.0 mi West 3.5 mph - 0.00 in   Clear